Lawrence, KS

3:02 PM CST on February 13, 2016 (GMT -0600)
Lawrence Municipal

Weather History for KLWC - November, 2012

Change the Weather History Date:

Wednesday, November 7, 2012

  Actual Average Record
Temperature  
Mean Temperature 44 °F 48 °F  
Max Temperature 59 °F 60 °F 80 °F (2001)
Min Temperature 28 °F 35 °F 21 °F (2003)
Degree Days  
Heating Degree Days 21 17  
Month to date heating degree days 116 113  
Since 1 July heating degree days 572 477  
Cooling Degree Days 0 0  
Month to date cooling degree days 0 0  
Year to date cooling degree days 1774 1370  
Moisture  
Dew Point 27 °F    
Average Humidity 58    
Maximum Humidity 85    
Minimum Humidity 30    
Precipitation  
Precipitation 0.00 in 0.08 in 1.58 in (2011)
Month to date precipitation T 0.63  
Year to date precipitation 19.04 35.53  
Sea Level Pressure  
Sea Level Pressure 30.14 in    
Wind  
Wind Speed 6 mph (North)    
Max Wind Speed 14 mph    
Max Gust Speed 17 mph    
Visibility 9 miles    
Events      
T = Trace of Precipitation, MM = Missing Value Source: NWS Daily Summary

Daily Weather History Graph

Daily Weather History Graph

Search for Another Location

Airport or City:

Trip Planner

Search our weather history database for the weather conditions in past years. The results will help you decide how hot, cold, wet, or windy it might be!

Date:

Astronomy

Nov. 07, 2012 Rise Set
Actual Time 6:55 AM CST 5:13 PM CST
Civil Twilight 6:27 AM CST 5:41 PM CST
Nautical Twilight 5:55 AM CST 6:13 PM CST
Astronomical Twilight 5:24 AM CST 6:44 PM CST
Moon No Moon Rise 1:19 PM CST (11/7)
Length of Visible Light 11h 13m
Length of Day
10h 17m
Last Quarter, 43% of the Moon is Illuminated
Nov 7
Last Quarter
Nov 13
New
Nov 20
First Quarter
Nov 28
Full
Dec 6
Last Quarter

Hourly Weather History & Observations

Time (CST) Temp. Windchill Dew Point Humidity Pressure Visibility Wind Dir Wind Speed Gust Speed Precip Events Conditions
12:52 AM 33.1 °F 28.7 °F 25.0 °F 72% 30.09 in 10.0 mi NNW 4.6 mph - N/A   Clear
1:52 AM 37.9 °F 32.7 °F 27.0 °F 65% 30.10 in 10.0 mi NNW 6.9 mph - N/A   Clear
2:52 AM 39.0 °F 35.7 °F 27.0 °F 62% 30.10 in 9.0 mi NW 4.6 mph - N/A   Clear
3:52 AM 35.1 °F 29.3 °F 26.1 °F 70% 30.11 in 9.0 mi WNW 6.9 mph - N/A   Clear
5:52 AM 33.1 °F 30.0 °F 26.1 °F 75% 30.16 in 7.0 mi West 3.5 mph - N/A   Clear
6:52 AM 28.9 °F 23.9 °F 24.1 °F 82% 30.18 in 10.0 mi NW 4.6 mph - N/A   Clear
7:52 AM 34.0 °F 28.0 °F 28.0 °F 79% 30.20 in 10.0 mi WNW 6.9 mph - N/A   Clear
8:52 AM 43.0 °F 38.8 °F 30.9 °F 62% 30.22 in 9.0 mi WNW 6.9 mph - N/A   Clear
9:52 AM 50.0 °F - 30.9 °F 48% 30.21 in 10.0 mi North 10.4 mph - N/A   Clear
10:52 AM 53.1 °F - 30.0 °F 41% 30.21 in 10.0 mi NNW 10.4 mph - N/A   Clear
11:52 AM 54.0 °F - 30.0 °F 40% 30.18 in 10.0 mi NNW 9.2 mph - N/A   Clear
12:52 PM 55.9 °F - 27.0 °F 33% 30.14 in 10.0 mi NNW 10.4 mph - N/A   Clear
1:52 PM 55.9 °F - 28.0 °F 34% 30.12 in 10.0 mi Calm Calm - N/A   Clear
2:52 PM 57.9 °F - 27.0 °F 31% 30.11 in 10.0 mi NNE 3.5 mph - N/A   Clear
3:52 PM 57.9 °F - 26.1 °F 30% 30.11 in 10.0 mi NE 3.5 mph - N/A   Clear
4:52 PM 52.0 °F - 27.0 °F 38% 30.11 in 10.0 mi ESE 5.8 mph - N/A   Clear
5:52 PM 46.9 °F - 26.1 °F 44% 30.11 in 10.0 mi ESE 6.9 mph - N/A   Clear
6:52 PM 39.9 °F 37.8 °F 26.1 °F 58% 30.12 in 6.0 mi ESE 3.5 mph - N/A   Haze
7:52 PM 36.0 °F 33.3 °F 26.1 °F 67% 30.12 in 9.0 mi SE 3.5 mph - N/A   Clear
8:52 PM 34.0 °F 28.8 °F 26.1 °F 73% 30.12 in 8.0 mi East 5.8 mph - N/A   Clear
9:52 PM 33.1 °F 27.7 °F 26.1 °F 75% 30.12 in 10.0 mi ESE 5.8 mph - N/A   Clear
10:52 PM 35.1 °F 30.1 °F 28.0 °F 76% 30.12 in 10.0 mi ESE 5.8 mph - N/A   Clear
11:52 PM 36.0 °F 31.1 °F 28.9 °F 76% 30.12 in 10.0 mi ESE 5.8 mph - N/A   Clear